TOS R/B, 22797

Orbit data source: Space-Track

TOS R/B, 22797 is space debris in HEO originally from an American launch on Sun, 12 Sep 1993 UTC launched from the Air Force Eastern Test Range (AFETR). Debris objects in space refer to the collection of defunct objects orbiting the Earth. Examples of debris include non-operational satellites, rocket bodies, and fragments generated from explosions, collisions, or faulty payload assembly.

Loading next visibility...
Identifier
22797, 1993-058D
Orbit
HEO
Country
Flag of USUS
Related business
Manufacturer
MMA/CSD
Mission
Spacecraft
Bus & Motor
ORBUS 21, Unknown motor
Mass
9,366 kg wet, 1,195 kg dry
Launch date (UTC)
1993-09-12 (32 years ago)
Launch vehicle
Unknown
Launch site
Air Force Eastern Test Range (AFETR)
Object type
Payload
Rocket body
Debris
Shape & HBR
Cyl + Cone, 1.6 m
Radar Cross Section
8.215 m², Large (>1 m²)

Expand to show TLE details & history
Last TLE update: 4 days ago

TLE from 4 days ago
0 TOS R/B
1 22797U 93058D   25255.23321410  .00000202  00000-0  12858-3 0  9998
2 22797  14.4720 167.3680 7380024 256.2312  19.0988  2.12966256242465
Epoch: 2025-09-12T05:35Z
TLE epoch observation values (Epoch: 2025-09-12T05:35:49.698Z)
Latitude
0.00045°
Longitude
92.00343°
Altitude
7,777.21 km
Speed
6.379 km/s
True Right ascension
11h 09m 46s
True Declination
0° 00' 02"
Sunlit
Object was in daylight at epoch
Visualization orbit readout
Latitude
Unknown
Longitude
Unknown
Altitude
Unknown
Speed
Unknown
Apparent Right ascension
Unknown
Apparent Declination
Unknown
Sunlit
N/A
Visualization observer readout
Local Sidereal Time
20:20:41
Azimuth
Unknown
Elevation
Unknown
Doppler factor
Unknown
Orbital elements
Apogee altitude
37,982.583 km
Perigee altitude
309.082 km
Semi-major axis
25,523.969 km
Eccentricity
0.738
Inclination
14.472°
RAAN
167.368°
Arg. of periapsis
256.2312°
True anomaly
103.89389°
Mean anomaly
19.0988°
Eccentric anomaly
52.76317°
Mean motion
0.53226 °/min
Orbital period
676.37 mins
BSTAR
0.00012858
Loading maneuver chart data...
Computing Atmospheric mass density...
Loading historical data...
Loading historical data...
Loading historical data...
Loading historical data...
Loading historical data...
Loading historical data...
Loading historical data...

Documentation

Showing up to 5 results
|